,,PA_Meas_PMT16A,,PR_Meas_QMR101_102,,RH_Meas_QMH101,,SR_Meas_QMS101,,TA_Meas_QMH101,,GenWind,,GenWind,
time,status,PA,status,PR,status,RH,status,SR,status,TA,status,DirAvg,status,SpdAvg,
2012-04-11, 00:00:05,VALID,918.837,VALID,0,VALID,95.4452,VALID,0,VALID,20.9885,VALID,16,VALID,0.306641,
2012-04-11, 00:01:05,VALID,918.804,VALID,0,VALID,95.4375,VALID,0,VALID,20.9885,VALID,16,VALID,0,
2012-04-11, 00:02:05,VALID,918.804,VALID,0,VALID,95.4757,VALID,0,VALID,21.0486,VALID,15,VALID,0,
2012-04-11, 00:03:05,VALID,918.788,VALID,0,VALID,95.3842,VALID,0,VALID,21.047,VALID,16,VALID,0,
2012-04-11, 00:04:05,VALID,918.766,VALID,0,VALID,95.3461,VALID,0,VALID,21.0486,VALID,16,VALID,0,
2012-04-11, 00:05:05,VALID,918.764,VALID,0,VALID,95.3613,VALID,0,VALID,21.0048,VALID,16,VALID,0.0148437,
2012-04-11, 00:06:05,VALID,918.736,VALID,0,VALID,95.2775,VALID,0,VALID,21.0454,VALID,16,VALID,0,
2012-04-11, 00:07:05,VALID,918.711,VALID,0,VALID,95.1936,VALID,0,VALID,21.0665,VALID,16,VALID,0.207031,
2012-04-11, 00:08:05,VALID,918.703,VALID,0,VALID,95.125,VALID,0,VALID,21.1282,VALID,16,VALID,0,
2012-04-11, 00:09:05,VALID,918.695,VALID,0,VALID,95.0792,VALID,0,VALID,21.1071,VALID,16,VALID,0.0292969,
2012-04-11, 00:10:05,VALID,918.703,VALID,0,VALID,95.1479,VALID,0,VALID,21.1266,VALID,16,VALID,0.709375,
2012-04-11, 00:11:05,VALID,918.668,VALID,0,VALID,95.1402,VALID,0,VALID,21.1266,VALID,16,VALID,0.911719,
2012-04-11, 00:12:05,VALID,918.69,VALID,0,VALID,95.1783,VALID,0,VALID,21.0649,VALID,16,VALID,0.448828,
2012-04-11, 00:13:05,VALID,918.697,VALID,0,VALID,95.247,VALID,0,VALID,21.125,VALID,16,VALID,0.06875,
2012-04-11, 00:14:05,VALID,918.684,VALID,0,VALID,95.1479,VALID,0,VALID,21.1689,VALID,16,VALID,0.720703,
2012-04-11, 00:15:05,VALID,918.677,VALID,0,VALID,95.2088,VALID,0,VALID,21.0844,VALID,16,VALID,0.642187,
2012-04-11, 00:16:05,VALID,918.685,VALID,0,VALID,95.2622,VALID,0,VALID,21.0665,VALID,16,VALID,0.832031,
2012-04-11, 00:17:05,VALID,918.704,VALID,0,VALID,95.2393,VALID,0,VALID,21.047,VALID,16,VALID,0.266406,
2012-04-11, 00:18:05,VALID,918.724,VALID,0,VALID,95.186,VALID,0,VALID,21.0064,VALID,16,VALID,0.835547,
2012-04-11, 00:19:05,VALID,918.767,VALID,0,VALID,95.3384,VALID,0,VALID,21.0486,VALID,16,VALID,0.974219,
2012-04-11, 00:20:05,VALID,918.779,VALID,0,VALID,95.4223,VALID,0,VALID,21.0064,VALID,16,VALID,1.04961,
2012-04-11, 00:21:05,VALID,918.831,VALID,0,VALID,95.4909,VALID,0,VALID,21.047,VALID,15,VALID,1.19609,
2012-04-11, 00:22:05,VALID,918.838,VALID,0,VALID,95.4299,VALID,0,VALID,20.9869,VALID,19,VALID,1.04062,
2012-04-11, 00:23:05,VALID,918.844,VALID,0,VALID,95.3232,VALID,0,VALID,20.969,VALID,6,VALID,1.1375,
2012-04-11, 00:24:05,VALID,918.892,VALID,0,VALID,95.4071,VALID,0,VALID,20.9479,VALID,26,VALID,1.28047,
2012-04-11, 00:25:05,VALID,918.87,VALID,0,VALID,95.529,VALID,0,VALID,20.9674,VALID,26,VALID,0.846875,
2012-04-11, 00:26:05,VALID,918.9,VALID,0,VALID,95.6434,VALID,0,VALID,20.9447,VALID,26,VALID,0.815234,
2012-04-11, 00:27:05,VALID,918.878,VALID,0,VALID,95.6357,VALID,0,VALID,21.0275,VALID,26,VALID,0.865234,
2012-04-11, 00:28:05,VALID,918.87,VALID,0,VALID,95.6739,VALID,0,VALID,20.9447,VALID,26,VALID,0.512109,
2012-04-11, 00:29:05,VALID,918.9,VALID,0,VALID,95.5671,VALID,0,VALID,20.969,VALID,26,VALID,1.03633,
2012-04-11, 00:30:05,VALID,918.868,VALID,0,VALID,95.4909,VALID,0,VALID,20.9284,VALID,26,VALID,0.680859,
2012-04-11, 00:31:05,VALID,918.876,VALID,0,VALID,95.4757,VALID,0,VALID,20.9284,VALID,26,VALID,0.371875,
2012-04-11, 00:32:05,VALID,918.801,VALID,0,VALID,95.3994,VALID,0,VALID,20.9089,VALID,26,VALID,0.132422,
2012-04-11, 00:33:05,VALID,918.84,VALID,0,VALID,95.3232,VALID,0,VALID,20.891,VALID,26,VALID,0.346875,
2012-04-11, 00:34:05,VALID,918.806,VALID,0,VALID,95.3003,VALID,0,VALID,20.891,VALID,15,VALID,0.569531,
2012-04-11, 00:35:05,VALID,918.797,VALID,0,VALID,95.3461,VALID,0,VALID,20.8309,VALID,15,VALID,0.0136719,
2012-04-11, 00:36:05,VALID,918.788,VALID,0,VALID,95.3918,VALID,0,VALID,20.8309,VALID,15,VALID,0,
2012-04-11, 00:37:05,VALID,918.742,VALID,0,VALID,95.5214,VALID,0,VALID,20.8714,VALID,15,VALID,0.511719,
2012-04-11, 00:38:05,VALID,918.762,VALID,0,VALID,95.5519,VALID,0.107441,VALID,20.8504,VALID,15,VALID,0.0191406,
2012-04-11, 00:39:05,VALID,918.762,VALID,0,VALID,95.5824,VALID,0.107441,VALID,20.8309,VALID,15,VALID,0.300781,
2012-04-11, 00:40:05,VALID,918.766,VALID,0,VALID,95.7196,VALID,0,VALID,20.8714,VALID,15,VALID,0.113672,
2012-04-11, 00:41:05,VALID,918.751,VALID,0,VALID,95.712,VALID,0,VALID,20.8082,VALID,46,VALID,0.515625,
2012-04-11, 00:42:05,VALID,918.787,VALID,0,VALID,95.7349,VALID,0.107441,VALID,20.8714,VALID,46,VALID,0.460156,
2012-04-11, 00:43:05,VALID,918.755,VALID,0,VALID,95.712,VALID,0,VALID,20.7918,VALID,46,VALID,0,
2012-04-11, 00:44:05,VALID,918.746,VALID,0.2,VALID,95.7654,VALID,0,VALID,20.8129,VALID,46,VALID,0.0425781,
2012-04-11, 00:45:05,VALID,918.76,VALID,0,VALID,95.6891,VALID,0,VALID,20.7318,VALID,46,VALID,0.458984,
2012-04-11, 00:46:05,VALID,918.742,VALID,0,VALID,95.7882,VALID,0,VALID,20.7528,VALID,46,VALID,0.275391,
2012-04-11, 00:47:05,VALID,918.789,VALID,0,VALID,95.7654,VALID,0,VALID,20.7123,VALID,357,VALID,0.664844,
2012-04-11, 00:48:05,VALID,918.74,VALID,0,VALID,95.6739,VALID,0,VALID,20.717,VALID,268,VALID,0.610156,
2012-04-11, 00:49:05,VALID,918.772,VALID,0,VALID,95.6662,VALID,0,VALID,20.6342,VALID,268,VALID,0.698828,
2012-04-11, 00:50:05,VALID,918.712,VALID,0.2,VALID,95.6586,VALID,0,VALID,20.6358,VALID,268,VALID,0.642969,
2012-04-11, 00:51:05,VALID,918.727,VALID,0,VALID,95.6967,VALID,0,VALID,20.6374,VALID,268,VALID,0.746094,
2012-04-11, 00:52:05,VALID,918.705,VALID,0,VALID,95.7349,VALID,0,VALID,20.5773,VALID,268,VALID,0.817578,
2012-04-11, 00:53:05,VALID,918.679,VALID,0,VALID,95.7196,VALID,0,VALID,20.5594,VALID,268,VALID,1.13359,
2012-04-11, 00:54:05,VALID,918.644,VALID,0,VALID,95.7044,VALID,0,VALID,20.5383,VALID,268,VALID,0.589063,
2012-04-11, 00:55:05,VALID,918.624,VALID,0,VALID,95.7958,VALID,0,VALID,20.5172,VALID,268,VALID,0.542578,
2012-04-11, 00:56:05,VALID,918.597,VALID,0,VALID,95.834,VALID,0.107441,VALID,20.5383,VALID,268,VALID,0.224609,
2012-04-11, 00:57:05,VALID,918.562,VALID,0.2,VALID,95.834,VALID,0.107441,VALID,20.4993,VALID,268,VALID,0,
2012-04-11, 00:58:05,VALID,918.526,VALID,0,VALID,95.8721,VALID,0.107441,VALID,20.6046,VALID,268,VALID,0,
2012-04-11, 00:59:05,VALID,918.563,VALID,0,VALID,95.9407,VALID,0.107441,VALID,20.5383,VALID,268,VALID,0,
2012-04-11, 01:00:05,VALID,918.534,VALID,0,VALID,96.0017,VALID,0.107441,VALID,20.5367,VALID,268,VALID,0,
2012-04-11, 01:01:05,VALID,918.503,VALID,0,VALID,96.1313,VALID,0.107441,VALID,20.5547,VALID,268,VALID,0,
2012-04-11, 01:02:05,VALID,918.541,VALID,0,VALID,96.116,VALID,0.107441,VALID,20.5757,VALID,268,VALID,0.452734,
2012-04-11, 01:03:05,VALID,918.542,VALID,0,VALID,96.0703,VALID,0.107441,VALID,20.5157,VALID,268,VALID,0.585156,
2012-04-11, 01:04:05,VALID,918.519,VALID,0.2,VALID,96.1923,VALID,0.107441,VALID,20.6179,VALID,268,VALID,0.544531,
2012-04-11, 01:05:05,VALID,918.529,VALID,0,VALID,96.2609,VALID,0,VALID,20.6569,VALID,268,VALID,0.325,
2012-04-11, 01:06:05,VALID,918.495,VALID,0,VALID,96.0474,VALID,0.107441,VALID,20.5352,VALID,359,VALID,0.527734,
2012-04-11, 01:07:05,VALID,918.516,VALID,0,VALID,96.0093,VALID,0.107441,VALID,20.5578,VALID,359,VALID,0.386328,
2012-04-11, 01:08:05,VALID,918.49,VALID,0,VALID,96.0855,VALID,0.107441,VALID,20.4962,VALID,359,VALID,0.49375,
2012-04-11, 01:09:05,VALID,918.47,VALID,0.2,VALID,96.1465,VALID,0,VALID,20.5399,VALID,359,VALID,0.503516,
2012-04-11, 01:10:05,VALID,918.448,VALID,0,VALID,96.0932,VALID,0,VALID,20.4798,VALID,359,VALID,0.791406,
2012-04-11, 01:11:05,VALID,918.43,VALID,0,VALID,96.0932,VALID,0,VALID,20.4813,VALID,359,VALID,0.826563,
2012-04-11, 01:12:05,VALID,918.422,VALID,0,VALID,96.1846,VALID,0,VALID,20.4813,VALID,359,VALID,0.660547,
2012-04-11, 01:13:05,VALID,918.392,VALID,0,VALID,96.2609,VALID,0,VALID,20.4813,VALID,359,VALID,0.573047,
2012-04-11, 01:14:05,VALID,918.383,VALID,0,VALID,96.2609,VALID,0,VALID,20.4618,VALID,356,VALID,0.889063,
2012-04-11, 01:15:05,VALID,918.339,VALID,0,VALID,96.3066,VALID,0,VALID,20.4423,VALID,351,VALID,0.682813,
2012-04-11, 01:16:05,VALID,918.329,VALID,0.2,VALID,96.3829,VALID,0,VALID,20.4423,VALID,351,VALID,0.7375,
2012-04-11, 01:17:05,VALID,918.272,VALID,0,VALID,96.4819,VALID,0,VALID,20.4618,VALID,346,VALID,0.892969,
2012-04-11, 01:18:05,VALID,918.291,VALID,0,VALID,96.4819,VALID,0,VALID,20.4618,VALID,337,VALID,0.945703,
2012-04-11, 01:19:05,VALID,918.267,VALID,0,VALID,96.5277,VALID,0,VALID,20.4634,VALID,26,VALID,0.839063,
2012-04-11, 01:20:05,VALID,918.289,VALID,0,VALID,96.5201,VALID,0,VALID,20.4228,VALID,357,VALID,1.34609,
2012-04-11, 01:21:05,VALID,918.269,VALID,0,VALID,96.5201,VALID,0,VALID,20.4049,VALID,13,VALID,1.15742,
2012-04-11, 01:22:05,VALID,918.278,VALID,0,VALID,96.6039,VALID,0,VALID,20.4033,VALID,23,VALID,1.22891,
2012-04-11, 01:23:05,VALID,918.281,VALID,0.2,VALID,96.6039,VALID,0,VALID,20.3838,VALID,10,VALID,0.854688,
2012-04-11, 01:24:05,VALID,918.278,VALID,0,VALID,96.7107,VALID,0,VALID,20.4033,VALID,1,VALID,0.932422,
2012-04-11, 01:25:05,VALID,918.273,VALID,0,VALID,96.6573,VALID,0,VALID,20.4049,VALID,23,VALID,1.42578,
2012-04-11, 01:26:05,VALID,918.299,VALID,0,VALID,96.6878,VALID,0,VALID,20.3838,VALID,28,VALID,1.24258,
2012-04-11, 01:27:05,VALID,918.29,VALID,0,VALID,96.703,VALID,0,VALID,20.3854,VALID,33,VALID,0.856641,
2012-04-11, 01:28:05,VALID,918.338,VALID,0,VALID,96.7411,VALID,0,VALID,20.3448,VALID,33,VALID,0.105859,
2012-04-11, 01:29:05,VALID,918.314,VALID,0,VALID,96.825,VALID,0,VALID,20.3643,VALID,33,VALID,0,
2012-04-11, 01:30:05,VALID,918.313,VALID,0,VALID,96.8631,VALID,0,VALID,20.4033,VALID,33,VALID,0.432813,
2012-04-11, 01:31:05,VALID,918.277,VALID,0.2,VALID,96.764,VALID,0,VALID,20.3448,VALID,33,VALID,0.392578,
2012-04-11, 01:32:05,VALID,918.295,VALID,0,VALID,96.7793,VALID,0,VALID,20.3253,VALID,33,VALID,0,
2012-04-11, 01:33:05,VALID,918.307,VALID,0,VALID,96.8479,VALID,0,VALID,20.3253,VALID,33,VALID,0,
2012-04-11, 01:34:05,VALID,918.284,VALID,0,VALID,96.9012,VALID,0,VALID,20.3448,VALID,33,VALID,0,
2012-04-11, 01:35:05,VALID,918.261,VALID,0,VALID,96.886,VALID,0,VALID,20.3643,VALID,33,VALID,0,
2012-04-11, 01:36:05,VALID,918.258,VALID,0,VALID,96.886,VALID,0,VALID,20.3448,VALID,33,VALID,0,
2012-04-11, 01:37:05,VALID,918.221,VALID,0,VALID,96.9241,VALID,0,VALID,20.3854,VALID,33,VALID,0.289844,
2012-04-11, 01:38:05,VALID,918.242,VALID,0,VALID,96.9317,VALID,0,VALID,20.3854,VALID,33,VALID,0.667188,
2012-04-11, 01:39:05,VALID,918.205,VALID,0,VALID,96.947,VALID,0,VALID,20.3838,VALID,33,VALID,0.66875,
2012-04-11, 01:40:05,VALID,918.219,VALID,0,VALID,96.8479,VALID,0,VALID,20.3448,VALID,33,VALID,0.616016,
2012-04-11, 01:41:05,VALID,918.232,VALID,0,VALID,96.8479,VALID,0,VALID,20.3058,VALID,33,VALID,0.489062,
2012-04-11, 01:42:05,VALID,918.252,VALID,0,VALID,96.8784,VALID,0,VALID,20.2879,VALID,33,VALID,0.514844,
2012-04-11, 01:43:04,VALID,918.223,VALID,0,VALID,96.9012,VALID,0,VALID,20.2473,VALID,33,VALID,0.674219,
2012-04-11, 01:44:04,VALID,918.223,VALID,0.2,VALID,96.9165,VALID,0,VALID,20.2684,VALID,33,VALID,0.529297,
2012-04-11, 01:45:04,VALID,918.236,VALID,0,VALID,96.9622,VALID,0,VALID,20.2473,VALID,33,VALID,0.139844,
2012-04-11, 01:46:04,VALID,918.221,VALID,0,VALID,96.9775,VALID,0,VALID,20.2473,VALID,33,VALID,0.0433594,
2012-04-11, 01:47:04,VALID,918.228,VALID,0,VALID,96.9927,VALID,0,VALID,20.2684,VALID,33,VALID,0,
2012-04-11, 01:48:04,VALID,918.208,VALID,0,VALID,97.0308,VALID,0,VALID,20.2879,VALID,33,VALID,0,
2012-04-11, 01:49:04,VALID,918.241,VALID,0,VALID,97.0385,VALID,0,VALID,20.3074,VALID,33,VALID,0,
2012-04-11, 01:50:04,VALID,918.188,VALID,0,VALID,97.0537,VALID,0,VALID,20.3058,VALID,33,VALID,0,
2012-04-11, 01:51:04,VALID,918.23,VALID,0,VALID,97.0385,VALID,0,VALID,20.3269,VALID,33,VALID,0,
2012-04-11, 01:52:04,VALID,918.206,VALID,0,VALID,96.9775,VALID,0,VALID,20.2668,VALID,33,VALID,0,
2012-04-11, 01:53:04,VALID,918.229,VALID,0,VALID,96.9775,VALID,0,VALID,20.2473,VALID,33,VALID,0.0484375,
2012-04-11, 01:54:04,VALID,918.199,VALID,0,VALID,97.0156,VALID,0,VALID,20.2668,VALID,33,VALID,0.482422,
2012-04-11, 01:55:04,VALID,918.19,VALID,0,VALID,97.0156,VALID,0,VALID,20.2684,VALID,33,VALID,0.439453,
2012-04-11, 01:56:04,VALID,918.192,VALID,0,VALID,97.0156,VALID,0,VALID,20.2068,VALID,33,VALID,0.641016,
2012-04-11, 01:57:04,VALID,918.152,VALID,0,VALID,96.9927,VALID,0,VALID,20.2083,VALID,33,VALID,0.663281,
2012-04-11, 01:58:04,VALID,918.166,VALID,0,VALID,97.0461,VALID,0,VALID,20.1662,VALID,33,VALID,0.618359,
2012-04-11, 01:59:04,VALID,918.123,VALID,0,VALID,97.069,VALID,0,VALID,20.1873,VALID,34,VALID,0.623047,
2012-04-11, 02:00:04,VALID,918.102,VALID,0.2,VALID,97.0385,VALID,0,VALID,20.1483,VALID,34,VALID,0.937109,
2012-04-11, 02:01:04,VALID,918.146,VALID,0,VALID,97.0766,VALID,0,VALID,20.1693,VALID,33,VALID,0.799609,
2012-04-11, 02:02:04,VALID,918.136,VALID,0,VALID,97.0537,VALID,0,VALID,20.1693,VALID,33,VALID,0.785937,
2012-04-11, 02:03:04,VALID,918.13,VALID,0,VALID,97.0918,VALID,0,VALID,20.1467,VALID,32,VALID,0.737891,
2012-04-11, 02:04:04,VALID,918.112,VALID,0,VALID,97.0842,VALID,0,VALID,20.1483,VALID,32,VALID,0.34375,
2012-04-11, 02:05:04,VALID,918.112,VALID,0,VALID,97.1071,VALID,0,VALID,20.1257,VALID,32,VALID,0.415625,
2012-04-11, 02:06:04,VALID,918.11,VALID,0,VALID,97.0994,VALID,0,VALID,20.1467,VALID,32,VALID,0.490234,
2012-04-11, 02:07:04,VALID,918.071,VALID,0,VALID,97.1223,VALID,0,VALID,20.1678,VALID,32,VALID,0.513281,
2012-04-11, 02:08:04,VALID,918.064,VALID,0,VALID,97.1071,VALID,0.107441,VALID,20.1888,VALID,32,VALID,0.451562,
2012-04-11, 02:09:04,VALID,918.059,VALID,0,VALID,97.1452,VALID,0,VALID,20.1693,VALID,32,VALID,0.467578,
2012-04-11, 02:10:04,VALID,918.038,VALID,0,VALID,97.1223,VALID,0,VALID,20.1888,VALID,32,VALID,0.575391,
2012-04-11, 02:11:04,VALID,918.029,VALID,0,VALID,97.1452,VALID,0,VALID,20.1888,VALID,31,VALID,0.335938,
2012-04-11, 02:12:04,VALID,918.015,VALID,0,VALID,97.1681,VALID,0,VALID,20.2293,VALID,31,VALID,0.0859375,
2012-04-11, 02:13:04,VALID,918.01,VALID,0,VALID,97.1452,VALID,0,VALID,20.2083,VALID,32,VALID,0.307813,
2012-04-11, 02:14:04,VALID,917.985,VALID,0,VALID,97.1604,VALID,0,VALID,20.2083,VALID,31,VALID,0.264062,
2012-04-11, 02:15:04,VALID,917.974,VALID,0,VALID,97.1528,VALID,0,VALID,20.2098,VALID,32,VALID,0.0121094,
2012-04-11, 02:16:04,VALID,917.934,VALID,0,VALID,97.1681,VALID,0,VALID,20.2293,VALID,32,VALID,0.267188,
2012-04-11, 02:17:04,VALID,917.932,VALID,0,VALID,97.1757,VALID,0,VALID,20.1662,VALID,32,VALID,0.247656,
2012-04-11, 02:18:04,VALID,917.924,VALID,0.2,VALID,97.1909,VALID,0,VALID,20.2278,VALID,32,VALID,0.119531,
2012-04-11, 02:19:04,VALID,917.931,VALID,0,VALID,97.1909,VALID,0,VALID,20.1873,VALID,32,VALID,0,
2012-04-11, 02:20:04,VALID,917.937,VALID,0,VALID,97.1833,VALID,0,VALID,20.1678,VALID,32,VALID,0,
2012-04-11, 02:21:04,VALID,917.888,VALID,0,VALID,97.1909,VALID,0,VALID,20.2083,VALID,32,VALID,0,
2012-04-11, 02:22:04,VALID,917.919,VALID,0,VALID,97.1986,VALID,0,VALID,20.1873,VALID,32,VALID,0,
2012-04-11, 02:23:04,VALID,917.939,VALID,0,VALID,97.1681,VALID,0,VALID,20.1888,VALID,32,VALID,0,
2012-04-11, 02:24:04,VALID,917.938,VALID,0,VALID,97.1833,VALID,0.107441,VALID,20.1467,VALID,32,VALID,0,
2012-04-11, 02:25:04,VALID,917.943,VALID,0,VALID,97.1681,VALID,0.107441,VALID,20.1873,VALID,32,VALID,0,
2012-04-11, 02:26:04,VALID,917.966,VALID,0,VALID,97.2062,VALID,0,VALID,20.1467,VALID,31,VALID,0,
2012-04-11, 02:27:04,VALID,917.964,VALID,0,VALID,97.1986,VALID,0,VALID,20.2293,VALID,32,VALID,0,
2012-04-11, 02:28:04,VALID,917.96,VALID,0,VALID,97.2062,VALID,0.107441,VALID,20.2083,VALID,32,VALID,0,
2012-04-11, 02:29:04,VALID,917.983,VALID,0,VALID,97.229,VALID,0.107441,VALID,20.1693,VALID,31,VALID,0,
2012-04-11, 02:30:04,VALID,917.957,VALID,0,VALID,97.229,VALID,0,VALID,20.1467,VALID,32,VALID,0,
2012-04-11, 02:31:04,VALID,917.949,VALID,0,VALID,97.2367,VALID,0,VALID,20.1678,VALID,32,VALID,0,
2012-04-11, 02:32:04,VALID,917.926,VALID,0,VALID,97.2214,VALID,0,VALID,20.1693,VALID,32,VALID,0,
2012-04-11, 02:33:04,VALID,917.919,VALID,0,VALID,97.2062,VALID,0,VALID,20.1708,VALID,32,VALID,0.102734,
2012-04-11, 02:34:04,VALID,917.938,VALID,0,VALID,97.2062,VALID,0.107441,VALID,20.0672,VALID,32,VALID,0.422266,
2012-04-11, 02:35:04,VALID,917.954,VALID,0,VALID,97.1833,VALID,0.107441,VALID,20.0718,VALID,32,VALID,0.483203,
2012-04-11, 02:36:04,VALID,917.943,VALID,0,VALID,97.1986,VALID,0.107441,VALID,20.0313,VALID,32,VALID,0.461719,
2012-04-11, 02:37:04,VALID,917.961,VALID,0,VALID,97.1986,VALID,0,VALID,20.0313,VALID,32,VALID,0.304688,
2012-04-11, 02:38:04,VALID,917.973,VALID,0,VALID,97.1833,VALID,0,VALID,20.0328,VALID,32,VALID,0.328906,
2012-04-11, 02:39:04,VALID,917.949,VALID,0,VALID,97.2214,VALID,0,VALID,20.0133,VALID,32,VALID,0,
2012-04-11, 02:40:04,VALID,917.98,VALID,0,VALID,97.2443,VALID,0,VALID,20.0133,VALID,32,VALID,0.141406,
2012-04-11, 02:41:04,VALID,917.991,VALID,0,VALID,97.2367,VALID,0,VALID,20.0328,VALID,32,VALID,0,
2012-04-11, 02:42:04,VALID,917.985,VALID,0,VALID,97.2519,VALID,0,VALID,20.0313,VALID,31,VALID,0,
2012-04-11, 02:43:04,VALID,917.968,VALID,0,VALID,97.2595,VALID,0,VALID,20.0313,VALID,32,VALID,0,
2012-04-11, 02:44:04,VALID,917.973,VALID,0,VALID,97.2595,VALID,0,VALID,20.0118,VALID,32,VALID,0,
2012-04-11, 02:45:04,VALID,917.98,VALID,0,VALID,97.2595,VALID,0,VALID,20.0313,VALID,32,VALID,0,
2012-04-11, 02:46:04,VALID,917.957,VALID,0,VALID,97.2672,VALID,0.107441,VALID,20.0118,VALID,32,VALID,0,
2012-04-11, 02:47:04,VALID,917.964,VALID,0,VALID,97.2595,VALID,0.107441,VALID,20.0313,VALID,32,VALID,0,
2012-04-11, 02:48:04,VALID,917.97,VALID,0,VALID,97.2748,VALID,0,VALID,20.0118,VALID,31,VALID,0,
2012-04-11, 02:49:04,VALID,917.967,VALID,0,VALID,97.2824,VALID,0,VALID,19.9923,VALID,32,VALID,0,
2012-04-11, 02:50:04,VALID,917.981,VALID,0,VALID,97.2824,VALID,0,VALID,20.0133,VALID,31,VALID,0,
2012-04-11, 02:51:04,VALID,917.988,VALID,0,VALID,97.2824,VALID,0,VALID,20.0133,VALID,32,VALID,0,
2012-04-11, 02:52:04,VALID,917.978,VALID,0,VALID,97.2824,VALID,0,VALID,20.0118,VALID,31,VALID,0,
2012-04-11, 02:53:04,VALID,918.01,VALID,0,VALID,97.2824,VALID,0.107441,VALID,19.9923,VALID,32,VALID,0,
2012-04-11, 02:54:04,VALID,918.026,VALID,0,VALID,97.29,VALID,0,VALID,19.9923,VALID,32,VALID,0.235156,
2012-04-11, 02:55:04,VALID,918.034,VALID,0,VALID,97.3129,VALID,0,VALID,20.0133,VALID,31,VALID,0.366016,
2012-04-11, 02:56:04,VALID,918.031,VALID,0,VALID,97.2824,VALID,0.107441,VALID,20.0133,VALID,32,VALID,0.497266,
2012-04-11, 02:57:04,VALID,918.003,VALID,0,VALID,97.29,VALID,0,VALID,19.9938,VALID,32,VALID,0.638281,
2012-04-11, 02:58:04,VALID,918.014,VALID,0,VALID,97.2977,VALID,0.107441,VALID,20.0133,VALID,32,VALID,0.617969,
2012-04-11, 02:59:04,VALID,918.024,VALID,0,VALID,97.3205,VALID,0,VALID,20.0148,VALID,32,VALID,0.229687,
2012-04-11, 03:00:04,VALID,918.019,VALID,0,VALID,97.3053,VALID,0,VALID,20.0133,VALID,32,VALID,0.246094,
2012-04-11, 03:01:04,VALID,917.992,VALID,0,VALID,97.3129,VALID,0,VALID,19.9953,VALID,32,VALID,0,
2012-04-11, 03:02:04,VALID,917.985,VALID,0,VALID,97.29,VALID,0,VALID,19.9728,VALID,32,VALID,0.0699219,
2012-04-11, 03:03:04,VALID,917.984,VALID,0,VALID,97.29,VALID,0,VALID,19.9938,VALID,32,VALID,0.0882813,
2012-04-11, 03:04:04,VALID,917.964,VALID,0,VALID,97.3053,VALID,0,VALID,19.9938,VALID,32,VALID,0,
2012-04-11, 03:05:04,VALID,917.948,VALID,0,VALID,97.29,VALID,0,VALID,19.9938,VALID,32,VALID,0,
2012-04-11, 03:06:04,VALID,917.923,VALID,0,VALID,97.3358,VALID,0,VALID,20.0148,VALID,32,VALID,0,
2012-04-11, 03:07:04,VALID,917.935,VALID,0,VALID,97.3053,VALID,0,VALID,19.9938,VALID,31,VALID,0,
2012-04-11, 03:08:04,VALID,917.934,VALID,0,VALID,97.3129,VALID,0,VALID,19.9938,VALID,32,VALID,0.253516,
2012-04-11, 03:09:04,VALID,917.909,VALID,0,VALID,97.3205,VALID,0,VALID,19.9938,VALID,32,VALID,0.323047,
2012-04-11, 03:10:04,VALID,917.885,VALID,0,VALID,97.3358,VALID,0,VALID,19.9938,VALID,32,VALID,0.497266,
2012-04-11, 03:11:04,VALID,917.896,VALID,0,VALID,97.3358,VALID,0,VALID,19.9743,VALID,32,VALID,0.501562,
2012-04-11, 03:12:04,VALID,917.894,VALID,0,VALID,97.3205,VALID,0,VALID,19.9548,VALID,32,VALID,0.44375,
2012-04-11, 03:13:04,VALID,917.873,VALID,0,VALID,97.3281,VALID,0,VALID,19.9743,VALID,32,VALID,0.723047,
2012-04-11, 03:14:04,VALID,917.886,VALID,0,VALID,97.3434,VALID,0,VALID,19.9548,VALID,31,VALID,0.68125,
2012-04-11, 03:15:04,VALID,917.852,VALID,0,VALID,97.3281,VALID,0,VALID,19.9548,VALID,32,VALID,0.595312,
2012-04-11, 03:16:04,VALID,917.849,VALID,0,VALID,97.3281,VALID,0,VALID,19.9353,VALID,31,VALID,0.679688,
2012-04-11, 03:17:04,VALID,917.835,VALID,0,VALID,97.3434,VALID,0,VALID,19.9353,VALID,32,VALID,0.670313,
2012-04-11, 03:18:04,VALID,917.818,VALID,0,VALID,97.3281,VALID,0,VALID,19.9353,VALID,32,VALID,0.655469,
2012-04-11, 03:19:04,VALID,917.793,VALID,0,VALID,97.3434,VALID,0,VALID,19.9158,VALID,31,VALID,0.682813,
2012-04-11, 03:20:04,VALID,917.796,VALID,0,VALID,97.3663,VALID,0,VALID,19.9353,VALID,31,VALID,0.545703,
2012-04-11, 03:21:04,VALID,917.795,VALID,0,VALID,97.3358,VALID,0,VALID,19.8948,VALID,31,VALID,0.576172,
2012-04-11, 03:22:04,VALID,917.785,VALID,0,VALID,97.3586,VALID,0,VALID,19.9158,VALID,32,VALID,0.600781,
2012-04-11, 03:23:04,VALID,917.773,VALID,0,VALID,97.351,VALID,0,VALID,19.8963,VALID,32,VALID,0.698438,
2012-04-11, 03:24:04,VALID,917.767,VALID,0,VALID,97.3434,VALID,0,VALID,19.8348,VALID,32,VALID,0.79375,
2012-04-11, 03:25:04,VALID,917.737,VALID,0,VALID,97.3434,VALID,0,VALID,19.8768,VALID,31,VALID,0.619141,
2012-04-11, 03:26:04,VALID,917.735,VALID,0,VALID,97.3586,VALID,0,VALID,19.8558,VALID,32,VALID,0.534375,
2012-04-11, 03:27:04,VALID,917.752,VALID,0,VALID,97.3358,VALID,0,VALID,19.8768,VALID,31,VALID,0.432422,
2012-04-11, 03:28:04,VALID,917.731,VALID,0,VALID,97.351,VALID,0,VALID,19.8768,VALID,32,VALID,0.573828,
2012-04-11, 03:29:04,VALID,917.723,VALID,0,VALID,97.351,VALID,0,VALID,19.8363,VALID,32,VALID,0.425,
2012-04-11, 03:30:04,VALID,917.697,VALID,0.2,VALID,97.3434,VALID,0,VALID,19.8768,VALID,32,VALID,0.421484,
2012-04-11, 03:31:04,VALID,917.727,VALID,0,VALID,97.3739,VALID,0,VALID,19.8558,VALID,31,VALID,0.589063,
2012-04-11, 03:32:04,VALID,917.701,VALID,0,VALID,97.3434,VALID,0,VALID,19.8363,VALID,31,VALID,0.501953,
2012-04-11, 03:33:04,VALID,917.716,VALID,0,VALID,97.3663,VALID,0,VALID,19.8573,VALID,32,VALID,0.648047,
2012-04-11, 03:34:04,VALID,917.732,VALID,0,VALID,97.351,VALID,0,VALID,19.8378,VALID,32,VALID,0.849609,
2012-04-11, 03:35:04,VALID,917.732,VALID,0,VALID,97.3663,VALID,0,VALID,19.8573,VALID,31,VALID,0.560156,
2012-04-11, 03:36:04,VALID,917.726,VALID,0,VALID,97.3739,VALID,0,VALID,19.8378,VALID,31,VALID,0.752734,
2012-04-11, 03:37:04,VALID,917.704,VALID,0,VALID,97.3663,VALID,0,VALID,19.8363,VALID,32,VALID,0.639063,
2012-04-11, 03:38:04,VALID,917.701,VALID,0,VALID,97.3739,VALID,0,VALID,19.8573,VALID,32,VALID,0.188281,
2012-04-11, 03:39:04,VALID,917.709,VALID,0,VALID,97.3739,VALID,0,VALID,19.8783,VALID,31,VALID,0.767969,
2012-04-11, 03:40:04,VALID,917.71,VALID,0,VALID,97.3663,VALID,0,VALID,19.8768,VALID,31,VALID,0.419141,
2012-04-11, 03:41:04,VALID,917.703,VALID,0,VALID,97.3739,VALID,0,VALID,19.8558,VALID,32,VALID,0.0699219,
2012-04-11, 03:42:04,VALID,917.708,VALID,0,VALID,97.3739,VALID,0,VALID,19.8978,VALID,32,VALID,0.330469,
2012-04-11, 03:43:04,VALID,917.719,VALID,0,VALID,97.3891,VALID,0,VALID,19.9158,VALID,32,VALID,0.651953,
2012-04-11, 03:44:04,VALID,917.73,VALID,0,VALID,97.3739,VALID,0,VALID,19.9368,VALID,32,VALID,1.06211,
2012-04-11, 03:45:04,VALID,917.715,VALID,0,VALID,97.3815,VALID,0,VALID,19.9353,VALID,31,VALID,0.274609,
2012-04-11, 03:46:04,VALID,917.709,VALID,0,VALID,97.3815,VALID,0,VALID,19.9548,VALID,31,VALID,0.499609,
2012-04-11, 03:47:04,VALID,917.726,VALID,0,VALID,97.3739,VALID,0,VALID,19.9353,VALID,31,VALID,1.09766,
2012-04-11, 03:48:04,VALID,917.682,VALID,0,VALID,97.3586,VALID,0,VALID,19.9143,VALID,31,VALID,0.517187,